Regional Weather Roundup
Issued by NWS

Home | Current Version | Previous Version | Text Only | Print | Product List | Glossary Off
Versions: 1 2 3 4 5 6 7 8 9 10 11 12 13 14 15 16 17 18 19 20 21 22 23 24 25 26 27 28 29 30 31 32 33 34 35 36 37 38 39 40 41 42 43 44 45 46 47 48 49 50

000
ASUS43 KOAX 042210
RWRNE

WEATHER ROUNDUP FOR NEBRASKA
NATIONAL WEATHER SERVICE OMAHA NE
400 PM CST SUN DEC 04 2016

NOTES: SATELLITE DATA IS BEING USED TO AUGMENT CLOUD COVER ABOVE
       12000 FEET.
       "FAIR" INDICATES FEW OR NO CLOUDS BELOW 12,000 FEET WITH NO
       SIGNIFICANT WEATHER AND/OR OBSTRUCTIONS TO VISIBILITY.

  * THESE STATIONS DO NOT REPORT WEATHER SUCH AS RAIN...SNOW OR FOG.

NEZ001>004-019>022-054>056-042300-
NEBRASKA PANHANDLE

CITY           SKY/WX    TMP DP  RH WIND       PRES   REMARKS
SCOTTSBLUFF    SUNNY     50  17  27 W17G25    29.77F
ALLIANCE       SUNNY     47  15  27 W18G25    29.75F
CHADRON        SUNNY     48  14  25 W12       29.73F
KIMBALL        SUNNY     46  15  28 SW12      29.80S
SIDNEY         SUNNY     47   9  21 SW13      29.82F
$$

NEZ057>060-069>072-079>082-042300-
SOUTHWEST NEBRASKA

CITY           SKY/WX    TMP DP  RH WIND       PRES   REMARKS
NORTH PLATTE   SUNNY     45  18  34 W7        29.85F
IMPERIAL       SUNNY     52   6  15 SW15      29.84F
LEXINGTON      SUNNY     50  17  26 W9        29.87S
MCCOOK         SUNNY     50  13  22 W12       29.88F
OGALLALA       SUNNY     52   9  18 SW8       29.82F
$$

NEZ005>010-023>029-035>040-094-042300-
NORTH CENTRAL NEBRASKA

CITY           SKY/WX    TMP DP  RH WIND       PRES   REMARKS
VALENTINE      CLEAR     48  12  23 W10       29.78F
AINSWORTH      CLEAR     48  18  29 W9        29.80F
BROKEN BOW     CLEAR     50  17  27 W8        29.84F
O`NEILL        CLEAR     48  23  36 W5        29.83S
ORD            CLEAR     51  15  23 W12       29.83F
THEDFORD       CLEAR     49  17  27 SW8       29.81F
$$

NEZ041-046>049-061>064-073>077-083>087-042300-
SOUTH CENTRAL NEBRASKA

CITY           SKY/WX    TMP DP  RH WIND       PRES   REMARKS
GRAND ISLAND   CLEAR     49  31  49 SW10      29.87F
AURORA         CLEAR     48  33  55 SW8       29.88S
HASTINGS       CLEAR     47  35  63 SW8       29.89F
HEBRON         CLEAR     37  32  83 S7        29.93S WCI  31
HOLDREGE       SUNNY     50  17  27 W9        29.88S
KEARNEY *      CLEAR     52  18  25 W9        29.87S
YORK           CLEAR     46  37  71 SW7       29.89S
$$

NEZ011>018-030>034-042>045-042300-
NORTHEAST NEBRASKA

CITY           SKY/WX    TMP DP  RH WIND       PRES   REMARKS
NORFOLK        CLEAR     50  24  36 W8        29.84S
ALBION         CLEAR     49  24  37 W6        29.85F
BLAIR          CLEAR     37  34  87 S6        29.88S WCI  33
FREMONT        CLEAR     39  34  81 S6        29.89S WCI  35
TEKAMAH        CLEAR     43  37  79 S7        29.88S
WAYNE          CLEAR     49  30  48 W8        29.84S
$$

NEZ050>053-065>068-078-088>093-042300-
SOUTHEAST NEBRASKA

CITY           SKY/WX    TMP DP  RH WIND       PRES   REMARKS
LINCOLN        CLEAR     37  32  82 SW5       29.93S WCI  33
OMAHA EPPLEY   CLEAR     41  32  70 S6        29.90S
BEATRICE       CLEAR     42  36  79 SW7       29.93S
FALLS CITY     CLEAR     43  36  76 SW10      29.94S
NEBRASKA CITY  CLEAR     39  33  78 SW9       29.93R WCI  33
PLATTSMOUTH    CLEAR     40  32  74 S6        29.91S
$$

NEZ044-045-051>053-067-042300-
OMAHA AREA

CITY           SKY/WX    TMP DP  RH WIND       PRES   REMARKS
OMAHA EPPLEY   CLEAR     41  32  70 S6        29.90S
BLAIR          CLEAR     37  34  87 S6        29.88S WCI  33
FREMONT        CLEAR     39  34  81 S6        29.89S WCI  35
MILLARD        CLEAR     38  32  78 SW3       29.91S
OFFUTT AFB     CLEAR     39  35  86 SW3       29.91S
PLATTSMOUTH    CLEAR     40  32  74 S6        29.91S
WAHOO          FAIR      37  32  82 S8        29.90R WCI  31
$$



USA.gov is the U.S. government's official web portal to all federal, state and local government web resources and services.